This is the latest recevied weather packets stored in our database for station/object SR9SMR. If no packets are shown the sender has not sent any weather packets the latest 10 day(s).
| Time | Temp. | Humidity | Pressure | Rain* | Wind** | Luminosity | Snow |
|---|---|---|---|---|---|---|---|
| 1777651052 | 12.22° C | 100% | 908.2 hPa | - | - | - | - |
| 1777650856 | 11.67° C | 100% | 907.6 hPa | - | - | - | - |
| 1777650547 | 11.67° C | 100% | 907.8 hPa | - | - | - | - |
| 1777650238 | 11.67° C | 100% | 907.6 hPa | - | - | - | - |
| 1777650042 | 11.67° C | 100% | 911.6 hPa | - | - | - | - |
| 1777649733 | 11.67° C | 100% | 912.2 hPa | - | - | - | - |
| 1777649422 | 11.67° C | 100% | 908.3 hPa | - | - | - | - |
| 1777649227 | 11.67° C | 100% | 913.6 hPa | - | - | - | - |
| 1777648917 | 11.67° C | 100% | 909.9 hPa | - | - | - | - |
| 1777648607 | 12.22° C | 100% | 908.4 hPa | - | - | - | - |
| 1777648423 | 12.22° C | 100% | 907.9 hPa | - | - | - | - |
| 1777648230 | 11.67° C | 100% | 907.7 hPa | - | - | - | - |
| 1777647922 | 12.22° C | 100% | 914.6 hPa | - | - | - | - |
| 1777647613 | 12.22° C | 100% | 908.9 hPa | - | - | - | - |
| 1777647354 | 12.22° C | 100% | 909.1 hPa | - | - | - | - |
| 1777647047 | 12.22° C | 100% | 908.7 hPa | - | - | - | - |
| 1777646710 | 11.67° C | 100% | 907.9 hPa | - | - | - | - |
| 1777646398 | 11.67° C | 100% | 915.5 hPa | - | - | - | - |
| 1777646302 | 12.22° C | 100% | 909.1 hPa | - | - | - | - |
| 1777645999 | 12.78° C | 100% | 908.7 hPa | - | - | - | - |
| 1777645808 | 12.22° C | 100% | 908.8 hPa | - | - | - | - |
| 1777645503 | 12.78° C | 100% | 909.2 hPa | - | - | - | - |
| 1777645406 | 12.78° C | 100% | 909.2 hPa | - | - | - | - |
| 1777645103 | 12.78° C | 100% | 909.5 hPa | - | - | - | - |
| 1777644956 | 11.67° C | 100% | 909 hPa | - | - | - | - |
* Rain since midnight (hover to see other rain measurements)
** Current wind speed in m/s (hover to see current wind gust speed)